Location: Tierra Monte Subdivision
(35.2092°N, 106.4864°W)
Time: 12:26:40
(UTC+00:00)

STARLINK-1076 - Pass Details

Date: 30 March 2020
Orbit: 548 x 551 km, 53.0° (Epoch: 06 June)

Event Time Altitude Azimuth Distance (km) Brightness Sun altitude
Rises 03:02:49 0° 306° (NW) 2,732 8.6 -20.2°
Reaches altitude 10° 03:05:10 10° 298° (WNW) 1,833 7.5 -20.6°
Maximum altitude 03:09:00 36° 231° (SW) 882 4.8 -21.3°
Enters shadow 03:10:24 28° 190° (S) 1,057 4.9 -21.6°
